Hourly Weather Roundup
Issued by NWS Central Illinois

Home | Current Version | Previous Version | Text Only | Print | Product List | Glossary On
Versions: 1 2 3 4 5 6 7 8 9 10 11 12 13 14 15 16 17 18 19 20 21 22 23 24 25 26 27 28 29 30 31 32 33 34 35 36 37 38 39 40 41 42 43 44 45 46 47 48 49 50
000
NZUS43 KILX 300010
HWRILX

AREA WEATHER ROUNDUP
NATIONAL WEATHER SERVICE, LINCOLN IL
700 PM CDT MON JUN 29 2015


CITY           SKY/WX    TMP DP  RH WIND       PRES   REMARKS
BLOOMINGTON    SUNNY     77  64  63 NW13      29.83S
6HR MIN TEMP:  77; 6HR MAX TEMP:  80;

CHAMPAIGN      SUNNY     76  65  68 W8        29.81S
6HR MIN TEMP:  75; 6HR MAX TEMP:  79;

DANVILLE       RAIN      69  65  89 N7        29.80R
6HR MIN TEMP:  69; 6HR MAX TEMP:  76; 6HR PCP:  0.09;

DECATUR        PTSUNNY   76  64  66 W10       29.82F
6HR MIN TEMP:  76; 6HR MAX TEMP:  80;

EFFINGHAM      SUNNY     75  62  62 SW5       29.84S
FLORA          SUNNY     77  65  65 W5        29.84S
6HR MIN TEMP:  74; 6HR MAX TEMP:  80;

GALESBURG      MOSUNNY   77  66  68 W6        29.83R
JACKSONVILLE   PTSUNNY   79  69  73 W3        29.83F HX  81
6HR MIN TEMP:  76; 6HR MAX TEMP:  81;

LACON          MOSUNNY   77  63  63 W6        29.81R
6HR MIN TEMP:  74; 6HR MAX TEMP:  79;

LAWRENCEVILLE  SUNNY     78  64  61 W15       29.83R HX  80
6HR MIN TEMP:  75; 6HR MAX TEMP:  80;

LITCHFIELD     PTSUNNY   73  66  79 CALM      29.85F
$$


CITY           SKY/WX    TMP DP  RH WIND       PRES   REMARKS
LINCOLN        MOSUNNY   78  64  62 W6        29.83R HX  80
6HR MIN TEMP:  77; 6HR MAX TEMP:  81;

MACOMB         MOSUNNY   76  68  76 W6        29.85R
MATTOON        SUNNY     74  64  71 W9        29.82S
6HR MIN TEMP:  73; 6HR MAX TEMP:  79;

MT CARMEL AP   SUNNY     79  61  53 W9        29.83R HX  80
OLNEY-NOBLE AP MOSUNNY   77  64  65 W6        29.84S
PARIS          MOSUNNY   76  66  71 W9        29.82R
6HR MIN TEMP:  74; 6HR MAX TEMP:  78;

PEORIA         MOSUNNY   79  63  57 W7        29.82S HX  80
6HR MIN TEMP:  77; 6HR MAX TEMP:  81;

PONTIAC        PTSUNNY   73  68  83 NE6       29.82R
RANTOUL        MOSUNNY   78  66  66 NW8       29.81S HX  80
6HR MIN TEMP:  75; 6HR MAX TEMP:  80;

ROBINSON       MOSUNNY   76  64  66 W10       29.83R
6HR MIN TEMP:  74; 6HR MAX TEMP:  79;

SPRINGFIELD    PTSUNNY   78  67  68 W6        29.83F HX  80
6HR MIN TEMP:  77; 6HR MAX TEMP:  81;

TAYLORVILLE    CLOUDY    73  64  73 W5        29.83F
$$

...REGIONAL REPORTS...


CITY           SKY/WX    TMP DP  RH WIND       PRES   REMARKS
CHICAGO O`HARE PTSUNNY   70  63  78 CALM      29.79R
KANKAKEE       PTSUNNY   70  66  86 CALM      29.81S
MOLINE         TSTM      76  66  71 CALM      29.80R
MOUNT VERNON   SUNNY     79  63  57 NW3       29.85F HX  80
PITTSFIELD     PTSUNNY   74  68  81 CALM      29.86S
QUINCY         SUNNY     74  65  73 SW3       29.85S
ROCKFORD       PTSUNNY   70  64  81 S5        29.81R
$$


CITY           SKY/WX    TMP DP  RH WIND       PRES   REMARKS
BURLINGTON     PTSUNNY   73  72  96 SW3       29.83S
CEDAR RAPIDS   MOSUNNY   78  66  66 NW9       29.81R HX  80
DES MOINES     CLOUDY    80  63  55 NW8       29.86S HX  81
KIRKSVILLE     SUNNY     78  67  68 NW5       29.88R HX  80
OTTUMWA        SUNNY     77  67  71 W6        29.84R
ST LOUIS       PTSUNNY   84  66  54 W3        29.85S HX  86
$$


CITY           SKY/WX    TMP DP  RH WIND       PRES   REMARKS
TERRE HAUTE    PTSUNNY   76  65  68 W7        29.81R
EVANSVILLE     SUNNY     80  63  55 W8        29.84R HX  81
INDIANAPOLIS   PTSUNNY   74  63  68 W9        29.80R
LAFAYETTE      LGT RAIN  68  65  90 NW5       29.80S
MADISON        PTSUNNY   75  62  64 CALM      29.78S
MILWAUKEE      MOSUNNY   70  61  73 SE7       29.79F
$$





USA.gov is the U.S. government's official web portal to all federal, state and local government web resources and services.